Snow/Ice From: 16-12-2017 16:00 Until: 17-12-2017 16:00 warning for: Snow/Ice Level: Yellow info button

Although rather usual in this region, locally or potentially dangerous phenomena are expected. (such as local winds, summer thunderstorms, rising streams or high waves) Be aware and pay attention to the latest weather updates, especially if you carry out activities exposed to weather or close to a stream or shoreline. 


Meteo18 Weather Cam more information Meteo18 Weather Cam


Thunder radar more information blitzortung!


warning for Snow/Ice more information rain snow radar


Visit our other weather sites:

Template documentation
and downloads

And another site



Weather Underground History page Text

Daily Summary for November 16, 2016 Units:  Metric    English   Both
« Previous Day
Next Day »
Daily Weekly Monthly Yearly Custom
  High: Low: Average:
Temperature: 10.7 °C 8.9 °C 10 °C
Dew Point: 10.0 °C 8.6 °C 9.4 °C
Humidity: 98 % 93 % 96 %
Wind Speed: 20.9 km/h 0.0 km/h 7.6 km/h
Wind Gust: 27.4 km/h - -
Wind:- - SW
Pressure: 1030.4 hPa 1020.9 hPa -
Precipitation: 1.5 mm    
Historical Graphs
 
 
Tabular Data for November 16, 2016
Time Temperature Dew Point Pressure Wind Wind Speed Wind Gust Humidity Rainfall Rate (Hourly)
00:02 8.9 °C 8.6 °C 1030.4 hPa SW 3.2 km/h 12.9 km/h 98 % 0.0 mm
00:07 8.9 °C 8.6 °C 1030.0 hPa SW 6.4 km/h 12.9 km/h 98 % 0.0 mm
00:17 9.0 °C 8.7 °C 1030.0 hPa SW 1.6 km/h 9.7 km/h 98 % 0.0 mm
00:22 9.0 °C 8.7 °C 1030.0 hPa SSW 4.8 km/h 14.5 km/h 98 % 0.0 mm
00:27 9.0 °C 8.7 °C 1030.0 hPa SW 8.0 km/h 14.5 km/h 98 % 0.0 mm
00:32 9.0 °C 8.7 °C 1030.0 hPa SW 4.8 km/h 12.9 km/h 98 % 0.0 mm
00:42 9.0 °C 8.7 °C 1030.0 hPa SSW 4.8 km/h 11.3 km/h 98 % 0.0 mm
00:52 9.0 °C 8.7 °C 1029.7 hPa SW 4.8 km/h 11.3 km/h 98 % 0.0 mm
00:57 9.0 °C 8.7 °C 1029.7 hPa SW 3.2 km/h 9.7 km/h 98 % 0.0 mm
01:02 9.0 °C 8.7 °C 1029.7 hPa WSW 6.4 km/h 9.7 km/h 98 % 0.0 mm
01:12 8.9 °C 8.6 °C 1029.3 hPa SW 6.4 km/h 9.7 km/h 98 % 0.0 mm
01:17 8.9 °C 8.6 °C 1029.3 hPa SSW 9.7 km/h 9.7 km/h 98 % 0.0 mm
01:25 9.0 °C 8.7 °C 1029.3 hPa SW 6.4 km/h 11.3 km/h 98 % 0.0 mm
01:32 9.0 °C 8.7 °C 1029.3 hPa SSW 8.0 km/h 12.9 km/h 98 % 0.0 mm
01:37 9.1 °C 8.8 °C 1029.3 hPa WSW 12.9 km/h 12.9 km/h 98 % 0.0 mm
01:42 9.1 °C 8.8 °C 1029.3 hPa WSW 9.7 km/h 12.9 km/h 98 % 0.0 mm
01:47 9.1 °C 8.8 °C 1029.0 hPa SSW 6.4 km/h 12.9 km/h 98 % 0.0 mm
01:52 9.1 °C 8.8 °C 1029.0 hPa SW 4.8 km/h 12.9 km/h 98 % 0.0 mm
02:02 9.1 °C 8.8 °C 1029.0 hPa SSE 8.0 km/h 12.9 km/h 98 % 0.0 mm
02:07 9.1 °C 8.8 °C 1029.0 hPa SW 6.4 km/h 12.9 km/h 98 % 0.0 mm
02:12 9.1 °C 8.8 °C 1029.0 hPa WSW 4.8 km/h 12.9 km/h 98 % 0.0 mm
02:17 9.1 °C 8.8 °C 1029.0 hPa SSW 4.8 km/h 12.9 km/h 98 % 0.0 mm
02:22 9.1 °C 8.8 °C 1029.0 hPa WSW 4.8 km/h 11.3 km/h 98 % 0.0 mm
02:27 9.1 °C 8.8 °C 1029.0 hPa SW 4.8 km/h 11.3 km/h 98 % 0.0 mm
02:32 9.1 °C 8.8 °C 1029.0 hPa SW 6.4 km/h 12.9 km/h 98 % 0.3 mm
02:37 9.1 °C 8.8 °C 1029.0 hPa SW 9.7 km/h 12.9 km/h 98 % 0.3 mm
02:42 9.1 °C 8.8 °C 1028.7 hPa WSW 8.0 km/h 12.9 km/h 98 % 0.3 mm
02:52 9.1 °C 8.8 °C 1028.7 hPa SW 8.0 km/h 11.3 km/h 98 % 0.3 mm
02:57 9.1 °C 8.8 °C 1028.7 hPa WSW 4.8 km/h 11.3 km/h 98 % 0.3 mm
03:02 9.1 °C 8.8 °C 1028.7 hPa SW 6.4 km/h 12.9 km/h 98 % 0.3 mm
03:07 9.1 °C 8.8 °C 1028.7 hPa WSW 3.2 km/h 12.9 km/h 98 % 0.3 mm
03:12 9.1 °C 8.8 °C 1028.7 hPa SW 6.4 km/h 11.3 km/h 98 % 0.3 mm
03:17 9.1 °C 8.8 °C 1028.7 hPa SW 8.0 km/h 11.3 km/h 98 % 0.3 mm
03:22 9.1 °C 8.8 °C 1028.7 hPa South 4.8 km/h 11.3 km/h 98 % 0.3 mm
03:37 9.1 °C 8.8 °C 1028.7 hPa SSW 6.4 km/h 11.3 km/h 98 % 0.0 mm
03:42 9.2 °C 8.9 °C 1028.7 hPa SW 6.4 km/h 11.3 km/h 98 % 0.0 mm
03:47 9.1 °C 8.8 °C 1028.3 hPa SSW 9.7 km/h 14.5 km/h 98 % 0.0 mm
03:52 9.2 °C 8.9 °C 1028.3 hPa SSW 3.2 km/h 14.5 km/h 98 % 0.0 mm
03:57 9.2 °C 8.9 °C 1028.3 hPa SW 6.4 km/h 14.5 km/h 98 % 0.3 mm
04:02 9.2 °C 8.9 °C 1028.3 hPa SW 6.4 km/h 11.3 km/h 98 % 0.5 mm
04:07 9.2 °C 8.9 °C 1028.3 hPa SW 4.8 km/h 12.9 km/h 98 % 0.5 mm
04:12 9.2 °C 8.9 °C 1028.3 hPa SW 11.3 km/h 12.9 km/h 98 % 0.5 mm
04:17 9.2 °C 8.9 °C 1028.0 hPa SW 3.2 km/h 12.9 km/h 98 % 0.5 mm
04:22 9.3 °C 9.0 °C 1028.0 hPa SW 6.4 km/h 12.9 km/h 98 % 0.5 mm
04:27 9.3 °C 9.0 °C 1028.0 hPa SW 8.0 km/h 12.9 km/h 98 % 0.5 mm
04:32 9.3 °C 9.0 °C 1028.0 hPa SW 8.0 km/h 12.9 km/h 98 % 0.5 mm
04:37 9.3 °C 9.0 °C 1028.0 hPa SW 6.4 km/h 12.9 km/h 98 % 0.5 mm
04:42 9.3 °C 9.0 °C 1027.7 hPa SW 8.0 km/h 12.9 km/h 98 % 0.5 mm
04:52 9.3 °C 9.0 °C 1027.7 hPa WSW 1.6 km/h 12.9 km/h 98 % 0.5 mm
04:57 9.3 °C 9.0 °C 1027.7 hPa SW 9.7 km/h 12.9 km/h 98 % 0.3 mm
05:02 9.4 °C 9.1 °C 1027.7 hPa WSW 11.3 km/h 12.9 km/h 98 % 0.0 mm
05:12 9.4 °C 9.1 °C 1027.7 hPa SSW 6.4 km/h 19.3 km/h 98 % 0.0 mm
05:17 9.4 °C 9.1 °C 1027.3 hPa SW 9.7 km/h 19.3 km/h 98 % 0.0 mm
05:22 9.4 °C 9.1 °C 1027.3 hPa SW 6.4 km/h 16.1 km/h 98 % 0.0 mm
05:32 9.4 °C 9.1 °C 1027.7 hPa WSW 9.7 km/h 12.9 km/h 98 % 0.0 mm
05:42 9.5 °C 9.2 °C 1027.3 hPa West 6.4 km/h 16.1 km/h 98 % 0.0 mm
05:47 9.5 °C 9.2 °C 1027.3 hPa SW 6.4 km/h 11.3 km/h 98 % 0.0 mm
05:52 9.5 °C 9.2 °C 1027.3 hPa SW 8.0 km/h 11.3 km/h 98 % 0.0 mm
05:57 9.5 °C 9.2 °C 1027.3 hPa SSW 1.6 km/h 12.9 km/h 98 % 0.0 mm
06:02 9.5 °C 9.2 °C 1027.3 hPa WSW 8.0 km/h 12.9 km/h 98 % 0.0 mm
06:12 9.6 °C 9.3 °C 1027.3 hPa SW 1.6 km/h 11.3 km/h 98 % 0.0 mm
06:17 9.6 °C 9.3 °C 1027.3 hPa SW 3.2 km/h 11.3 km/h 98 % 0.0 mm
06:22 9.6 °C 9.3 °C 1027.0 hPa WSW 9.7 km/h 11.3 km/h 98 % 0.0 mm
06:32 9.6 °C 9.3 °C 1027.0 hPa SW 12.9 km/h 16.1 km/h 98 % 0.0 mm
06:37 9.6 °C 9.3 °C 1027.0 hPa WSW 4.8 km/h 14.5 km/h 98 % 0.0 mm
06:42 9.7 °C 9.4 °C 1027.0 hPa WSW 12.9 km/h 14.5 km/h 98 % 0.0 mm
06:47 9.7 °C 9.4 °C 1027.0 hPa SW 8.0 km/h 17.7 km/h 98 % 0.0 mm
06:52 9.7 °C 9.4 °C 1027.0 hPa WSW 4.8 km/h 17.7 km/h 98 % 0.0 mm
06:57 9.7 °C 9.4 °C 1027.0 hPa SW 11.3 km/h 17.7 km/h 98 % 0.0 mm
07:02 9.7 °C 9.4 °C 1027.0 hPa SW 8.0 km/h 17.7 km/h 98 % 0.0 mm
07:12 9.7 °C 9.4 °C 1027.0 hPa WSW 14.5 km/h 17.7 km/h 98 % 0.0 mm
07:17 9.7 °C 9.4 °C 1026.6 hPa SW 4.8 km/h 17.7 km/h 98 % 0.3 mm
07:22 9.7 °C 9.4 °C 1026.6 hPa WSW 4.8 km/h 14.5 km/h 98 % 0.3 mm
07:32 9.8 °C 9.5 °C 1026.6 hPa SW 9.7 km/h 14.5 km/h 98 % 0.3 mm
07:37 9.8 °C 9.5 °C 1026.6 hPa SW 12.9 km/h 17.7 km/h 98 % 0.3 mm
07:52 9.7 °C 9.4 °C 1026.6 hPa SW 9.7 km/h 17.7 km/h 98 % 0.3 mm
08:02 9.8 °C 9.5 °C 1026.6 hPa South 8.0 km/h 19.3 km/h 98 % 0.3 mm
08:12 9.8 °C 9.5 °C 1026.6 hPa SW 9.7 km/h 17.7 km/h 98 % 0.3 mm
08:17 9.8 °C 9.5 °C 1026.6 hPa SSW 8.0 km/h 22.5 km/h 98 % 0.0 mm
08:22 9.8 °C 9.5 °C 1026.6 hPa SSW 11.3 km/h 22.5 km/h 98 % 0.0 mm
08:32 9.8 °C 9.5 °C 1026.3 hPa WSW 4.8 km/h 22.5 km/h 98 % 0.0 mm
08:37 9.8 °C 9.5 °C 1026.3 hPa SW 8.0 km/h 20.9 km/h 98 % 0.0 mm
08:42 9.8 °C 9.5 °C 1026.3 hPa WSW 8.0 km/h 20.9 km/h 98 % 0.0 mm
08:47 9.8 °C 9.5 °C 1026.3 hPa WSW 12.9 km/h 22.5 km/h 98 % 0.0 mm
08:52 9.8 °C 9.5 °C 1026.6 hPa SW 6.4 km/h 22.5 km/h 98 % 0.0 mm
08:57 9.9 °C 9.6 °C 1026.3 hPa SW 9.7 km/h 22.5 km/h 98 % 0.0 mm
09:02 9.9 °C 9.6 °C 1026.3 hPa SW 8.0 km/h 22.5 km/h 98 % 0.0 mm
09:07 9.9 °C 9.6 °C 1026.3 hPa SW 14.5 km/h 19.3 km/h 98 % 0.0 mm
09:12 9.9 °C 9.6 °C 1026.3 hPa West 6.4 km/h 19.3 km/h 98 % 0.0 mm
09:17 9.9 °C 9.6 °C 1026.3 hPa WSW 9.7 km/h 16.1 km/h 98 % 0.0 mm
09:22 9.9 °C 9.6 °C 1026.6 hPa WSW 14.5 km/h 17.7 km/h 98 % 0.0 mm
09:32 9.9 °C 9.6 °C 1026.6 hPa WNW 9.7 km/h 17.7 km/h 98 % 0.0 mm
09:42 9.9 °C 9.6 °C 1026.6 hPa WNW 17.7 km/h 19.3 km/h 98 % 0.0 mm
09:47 9.9 °C 9.6 °C 1026.3 hPa WSW 6.4 km/h 20.9 km/h 98 % 0.0 mm
09:52 9.9 °C 9.6 °C 1026.3 hPa SW 12.9 km/h 20.9 km/h 98 % 0.0 mm
09:57 10.0 °C 9.7 °C 1026.3 hPa SW 4.8 km/h 20.9 km/h 98 % 0.0 mm
10:02 10.1 °C 9.8 °C 1026.3 hPa WSW 3.2 km/h 20.9 km/h 98 % 0.0 mm
10:12 10.1 °C 9.8 °C 1026.3 hPa WSW 8.0 km/h 20.9 km/h 98 % 0.0 mm
10:17 10.1 °C 9.8 °C 1026.3 hPa West 3.2 km/h 16.1 km/h 98 % 0.0 mm
10:22 10.1 °C 9.8 °C 1026.3 hPa West 8.0 km/h 16.1 km/h 98 % 0.0 mm
10:32 9.9 °C 9.6 °C 1026.6 hPa West 8.0 km/h 16.1 km/h 98 % 0.0 mm
10:37 9.9 °C 9.6 °C 1026.6 hPa WNW 9.7 km/h 19.3 km/h 98 % 0.0 mm
10:42 9.8 °C 9.5 °C 1026.3 hPa West 14.5 km/h 19.3 km/h 98 % 0.0 mm
10:47 9.9 °C 9.6 °C 1026.3 hPa WSW 3.2 km/h 20.9 km/h 98 % 0.0 mm
10:52 10.1 °C 9.8 °C 1026.3 hPa WSW 4.8 km/h 20.9 km/h 98 % 0.0 mm
11:02 10.2 °C 9.7 °C 1026.0 hPa SW 8.0 km/h 20.9 km/h 97 % 0.0 mm
11:12 10.2 °C 9.7 °C 1026.3 hPa WSW 8.0 km/h 17.7 km/h 97 % 0.0 mm
11:17 10.2 °C 9.7 °C 1026.3 hPa WSW 11.3 km/h 19.3 km/h 97 % 0.0 mm
11:22 10.2 °C 9.7 °C 1026.0 hPa SW 4.8 km/h 19.3 km/h 97 % 0.0 mm
11:32 10.3 °C 9.8 °C 1026.3 hPa SSW 4.8 km/h 17.7 km/h 97 % 0.0 mm
11:42 10.3 °C 9.7 °C 1026.3 hPa WSW 8.0 km/h 17.7 km/h 96 % 0.0 mm
11:52 10.4 °C 9.8 °C 1026.0 hPa WSW 8.0 km/h 19.3 km/h 96 % 0.0 mm
11:57 10.3 °C 9.7 °C 1026.0 hPa SW 6.4 km/h 19.3 km/h 96 % 0.0 mm
12:12 10.3 °C 9.5 °C 1025.6 hPa WSW 16.1 km/h 24.1 km/h 95 % 0.0 mm
12:22 10.3 °C 9.4 °C 1025.3 hPa WSW 16.1 km/h 24.1 km/h 94 % 0.0 mm
12:32 10.4 °C 9.5 °C 1025.3 hPa SW 11.3 km/h 24.1 km/h 94 % 0.0 mm
12:37 10.4 °C 9.3 °C 1024.9 hPa SW 6.4 km/h 24.1 km/h 93 % 0.0 mm
12:42 10.5 °C 9.4 °C 1024.9 hPa West 12.9 km/h 22.5 km/h 93 % 0.0 mm
12:52 10.6 °C 9.5 °C 1024.9 hPa SW 8.0 km/h 20.9 km/h 93 % 0.0 mm
13:02 10.6 °C 9.5 °C 1024.9 hPa West 17.7 km/h 22.5 km/h 93 % 0.0 mm
13:12 10.7 °C 9.6 °C 1024.9 hPa WSW 8.0 km/h 20.9 km/h 93 % 0.0 mm
13:17 10.7 °C 9.6 °C 1024.9 hPa West 1.6 km/h 20.9 km/h 93 % 0.0 mm
13:22 10.7 °C 9.6 °C 1024.9 hPa West 11.3 km/h 20.9 km/h 93 % 0.0 mm
13:32 10.6 °C 9.5 °C 1024.6 hPa SW 8.0 km/h 20.9 km/h 93 % 0.0 mm
13:37 10.6 °C 9.5 °C 1024.6 hPa West 9.7 km/h 19.3 km/h 93 % 0.0 mm
13:42 10.6 °C 9.5 °C 1024.6 hPa SW 6.4 km/h 19.3 km/h 93 % 0.0 mm
13:52 10.6 °C 9.7 °C 1024.6 hPa SW 6.4 km/h 19.3 km/h 94 % 0.0 mm
13:57 10.6 °C 9.7 °C 1024.3 hPa WSW 9.7 km/h 19.3 km/h 94 % 0.0 mm
14:02 10.6 °C 9.7 °C 1024.3 hPa West 1.6 km/h 14.5 km/h 94 % 0.0 mm
14:07 10.6 °C 9.7 °C 1024.3 hPa WSW 12.9 km/h 14.5 km/h 94 % 0.0 mm
14:12 10.6 °C 9.5 °C 1024.3 hPa WSW 4.8 km/h 16.1 km/h 93 % 0.0 mm
14:17 10.6 °C 9.5 °C 1024.3 hPa SW 3.2 km/h 19.3 km/h 93 % 0.0 mm
14:22 10.6 °C 9.5 °C 1024.3 hPa SW 1.6 km/h 19.3 km/h 93 % 0.0 mm
14:27 10.7 °C 9.6 °C 1024.3 hPa WSW 12.9 km/h 17.7 km/h 93 % 0.0 mm
14:32 10.7 °C 9.6 °C 1024.3 hPa South 3.2 km/h 17.7 km/h 93 % 0.0 mm
14:37 10.7 °C 9.6 °C 1024.3 hPa WSW 8.0 km/h 17.7 km/h 93 % 0.0 mm
14:47 10.7 °C 9.6 °C 1024.3 hPa WNW 8.0 km/h 17.7 km/h 93 % 0.0 mm
14:52 10.7 °C 9.6 °C 1024.3 hPa SW 6.4 km/h 19.3 km/h 93 % 0.0 mm
15:02 10.7 °C 9.6 °C 1023.9 hPa WSW 11.3 km/h 19.3 km/h 93 % 0.0 mm
15:07 10.7 °C 9.6 °C 1023.9 hPa WSW 11.3 km/h 22.5 km/h 93 % 0.0 mm
15:12 10.7 °C 9.6 °C 1023.9 hPa WSW 8.0 km/h 22.5 km/h 93 % 0.0 mm
15:22 10.7 °C 9.6 °C 1023.9 hPa SSW 4.8 km/h 19.3 km/h 93 % 0.0 mm
15:32 10.7 °C 9.6 °C 1023.9 hPa SW 8.0 km/h 16.1 km/h 93 % 0.0 mm
15:37 10.7 °C 9.6 °C 1023.6 hPa Calm   16.1 km/h 93 % 0.0 mm
15:42 10.7 °C 9.6 °C 1023.9 hPa WNW 3.2 km/h 16.1 km/h 93 % 0.0 mm
15:47 10.7 °C 9.6 °C 1023.9 hPa WSW 4.8 km/h 16.1 km/h 93 % 0.0 mm
15:52 10.7 °C 9.6 °C 1023.9 hPa SW 9.7 km/h 12.9 km/h 93 % 0.0 mm
16:07 10.7 °C 9.6 °C 1023.9 hPa SSW 6.4 km/h 11.3 km/h 93 % 0.0 mm
16:12 10.7 °C 9.6 °C 1023.9 hPa SSW 4.8 km/h 12.9 km/h 93 % 0.0 mm
16:17 10.7 °C 9.8 °C 1023.9 hPa SW 6.4 km/h 12.9 km/h 94 % 0.0 mm
16:22 10.7 °C 9.8 °C 1023.9 hPa SW 12.9 km/h 12.9 km/h 94 % 0.0 mm
16:27 10.7 °C 9.8 °C 1023.9 hPa SW 4.8 km/h 17.7 km/h 94 % 0.0 mm
16:32 10.7 °C 9.8 °C 1023.6 hPa SW 3.2 km/h 17.7 km/h 94 % 0.0 mm
16:42 10.7 °C 9.8 °C 1023.6 hPa SW 6.4 km/h 16.1 km/h 94 % 0.0 mm
16:52 10.7 °C 9.8 °C 1023.6 hPa SW 4.8 km/h 16.1 km/h 94 % 0.0 mm
16:57 10.7 °C 9.8 °C 1023.6 hPa SSW 3.2 km/h 16.1 km/h 94 % 0.0 mm
17:02 10.7 °C 9.6 °C 1023.6 hPa SSW 3.2 km/h 16.1 km/h 93 % 0.0 mm
17:07 10.7 °C 9.6 °C 1023.6 hPa WSW 8.0 km/h 9.7 km/h 93 % 0.0 mm
17:12 10.7 °C 9.6 °C 1023.6 hPa SW 3.2 km/h 11.3 km/h 93 % 0.0 mm
17:17 10.7 °C 9.6 °C 1023.6 hPa SW 3.2 km/h 11.3 km/h 93 % 0.0 mm
17:22 10.7 °C 9.8 °C 1023.6 hPa SSW 1.6 km/h 11.3 km/h 94 % 0.0 mm
17:27 10.7 °C 9.8 °C 1023.6 hPa WSW 3.2 km/h 9.7 km/h 94 % 0.0 mm
17:32 10.6 °C 9.7 °C 1023.6 hPa SSW 4.8 km/h 9.7 km/h 94 % 0.0 mm
17:37 10.6 °C 9.7 °C 1023.2 hPa SW 1.6 km/h 9.7 km/h 94 % 0.0 mm
17:42 10.6 °C 9.7 °C 1023.2 hPa South 4.8 km/h 9.7 km/h 94 % 0.0 mm
17:47 10.6 °C 9.7 °C 1023.2 hPa SSW 3.2 km/h 9.7 km/h 94 % 0.0 mm
17:52 10.6 °C 9.7 °C 1023.2 hPa SW 4.8 km/h 9.7 km/h 94 % 0.0 mm
17:57 10.6 °C 9.7 °C 1023.2 hPa SSW 4.8 km/h 9.7 km/h 94 % 0.0 mm
18:02 10.6 °C 9.7 °C 1023.2 hPa SSW 4.8 km/h 12.9 km/h 94 % 0.0 mm
18:12 10.6 °C 9.7 °C 1023.2 hPa SW 6.4 km/h 16.1 km/h 94 % 0.0 mm
18:17 10.6 °C 9.7 °C 1023.2 hPa SW 8.0 km/h 16.1 km/h 94 % 0.0 mm
18:22 10.6 °C 9.7 °C 1023.2 hPa SW 8.0 km/h 16.1 km/h 94 % 0.0 mm
18:32 10.5 °C 9.6 °C 1023.2 hPa SW 11.3 km/h 16.1 km/h 94 % 0.0 mm
18:37 10.5 °C 9.6 °C 1023.2 hPa SSW 4.8 km/h 14.5 km/h 94 % 0.0 mm
18:47 10.6 °C 9.7 °C 1023.2 hPa SW 12.9 km/h 19.3 km/h 94 % 0.0 mm
18:52 10.6 °C 9.7 °C 1023.2 hPa SW 12.9 km/h 19.3 km/h 94 % 0.0 mm
18:57 10.6 °C 9.7 °C 1022.9 hPa SW 11.3 km/h 19.3 km/h 94 % 0.0 mm
19:07 10.6 °C 9.7 °C 1022.9 hPa SW 9.7 km/h 19.3 km/h 94 % 0.0 mm
19:12 10.6 °C 9.7 °C 1022.9 hPa SW 4.8 km/h 20.9 km/h 94 % 0.0 mm
19:17 10.6 °C 9.7 °C 1022.6 hPa SW 6.4 km/h 20.9 km/h 94 % 0.0 mm
19:22 10.5 °C 9.7 °C 1022.6 hPa SW 9.7 km/h 20.9 km/h 95 % 0.0 mm
19:27 10.4 °C 9.6 °C 1022.2 hPa SSW 16.1 km/h 16.1 km/h 95 % 0.0 mm
19:32 10.4 °C 9.6 °C 1022.2 hPa SW 14.5 km/h 19.3 km/h 95 % 0.0 mm
19:37 10.4 °C 9.6 °C 1022.6 hPa WSW 9.7 km/h 19.3 km/h 95 % 0.0 mm
19:42 10.4 °C 9.6 °C 1022.6 hPa SW 4.8 km/h 19.3 km/h 95 % 0.0 mm
19:47 10.3 °C 9.5 °C 1022.6 hPa WSW 4.8 km/h 19.3 km/h 95 % 0.0 mm
19:57 10.4 °C 9.6 °C 1022.6 hPa SSW 9.7 km/h 17.7 km/h 95 % 0.0 mm
20:02 10.3 °C 9.5 °C 1022.6 hPa SSW 9.7 km/h 17.7 km/h 95 % 0.0 mm
20:12 10.4 °C 9.6 °C 1022.2 hPa SW 8.0 km/h 16.1 km/h 95 % 0.0 mm
20:17 10.4 °C 9.6 °C 1022.2 hPa SSW 4.8 km/h 16.1 km/h 95 % 0.0 mm
20:27 10.3 °C 9.5 °C 1022.2 hPa SW 6.4 km/h 16.1 km/h 95 % 0.0 mm
20:32 10.4 °C 9.6 °C 1022.2 hPa SW 11.3 km/h 16.1 km/h 95 % 0.0 mm
20:37 10.4 °C 9.6 °C 1022.2 hPa SW 6.4 km/h 16.1 km/h 95 % 0.0 mm
20:42 10.4 °C 9.6 °C 1022.2 hPa WSW 3.2 km/h 16.1 km/h 95 % 0.0 mm
20:47 10.4 °C 9.6 °C 1022.2 hPa SSW 11.3 km/h 14.5 km/h 95 % 0.0 mm
20:52 10.4 °C 9.6 °C 1022.2 hPa SW 3.2 km/h 14.5 km/h 95 % 0.0 mm
20:57 10.4 °C 9.6 °C 1022.2 hPa SW 4.8 km/h 14.5 km/h 95 % 0.0 mm
21:02 10.4 °C 9.8 °C 1022.2 hPa SW 8.0 km/h 12.9 km/h 96 % 0.0 mm
21:07 10.4 °C 9.8 °C 1022.2 hPa South 4.8 km/h 12.9 km/h 96 % 0.0 mm
21:12 10.4 °C 9.8 °C 1022.2 hPa SW 6.4 km/h 12.9 km/h 96 % 0.0 mm
21:17 10.4 °C 9.8 °C 1021.9 hPa SSW 1.6 km/h 12.9 km/h 96 % 0.0 mm
21:22 10.3 °C 9.7 °C 1022.2 hPa SW 9.7 km/h 12.9 km/h 96 % 0.0 mm
21:27 10.3 °C 9.7 °C 1021.9 hPa WSW 6.4 km/h 12.9 km/h 96 % 0.0 mm
21:32 10.3 °C 9.7 °C 1022.2 hPa SW 9.7 km/h 12.9 km/h 96 % 0.0 mm
21:37 10.3 °C 9.7 °C 1021.9 hPa SSW 3.2 km/h 12.9 km/h 96 % 0.0 mm
21:42 10.3 °C 9.8 °C 1021.9 hPa SW 9.7 km/h 11.3 km/h 97 % 0.0 mm
21:47 10.4 °C 9.9 °C 1021.9 hPa SSW 3.2 km/h 14.5 km/h 97 % 0.0 mm
21:52 10.4 °C 9.9 °C 1021.9 hPa SSW 11.3 km/h 14.5 km/h 97 % 0.0 mm
21:57 10.4 °C 9.9 °C 1021.9 hPa SW 4.8 km/h 16.1 km/h 97 % 0.0 mm
22:02 10.4 °C 9.9 °C 1021.9 hPa SW 3.2 km/h 16.1 km/h 97 % 0.0 mm
22:12 10.4 °C 9.9 °C 1021.9 hPa SW 6.4 km/h 17.7 km/h 97 % 0.3 mm
22:17 10.4 °C 9.9 °C 1021.9 hPa WSW 16.1 km/h 17.7 km/h 97 % 0.3 mm
22:22 10.4 °C 9.9 °C 1021.9 hPa SW 6.4 km/h 17.7 km/h 97 % 0.3 mm
22:27 10.4 °C 9.9 °C 1021.6 hPa SW 6.4 km/h 22.5 km/h 97 % 0.3 mm
22:32 10.4 °C 9.9 °C 1021.6 hPa SW 12.9 km/h 22.5 km/h 97 % 0.5 mm
22:42 10.5 °C 10.0 °C 1021.6 hPa SW 14.5 km/h 20.9 km/h 97 % 0.5 mm
22:47 10.5 °C 10.0 °C 1021.6 hPa SSW 9.7 km/h 22.5 km/h 97 % 0.5 mm
22:57 10.5 °C 10.0 °C 1021.6 hPa WSW 9.7 km/h 27.4 km/h 97 % 0.5 mm
23:02 10.5 °C 10.0 °C 1021.6 hPa SW 6.4 km/h 22.5 km/h 97 % 0.5 mm
23:07 10.5 °C 10.0 °C 1021.6 hPa WSW 20.9 km/h 20.9 km/h 97 % 0.5 mm
23:12 10.5 °C 10.0 °C 1021.2 hPa WSW 14.5 km/h 20.9 km/h 97 % 0.5 mm
23:17 10.5 °C 10.0 °C 1021.2 hPa SW 12.9 km/h 20.9 km/h 97 % 0.5 mm
23:22 10.5 °C 10.0 °C 1021.2 hPa WSW 4.8 km/h 24.1 km/h 97 % 0.5 mm
23:27 10.5 °C 10.0 °C 1021.2 hPa West 3.2 km/h 24.1 km/h 97 % 0.5 mm
23:32 10.4 °C 9.9 °C 1021.2 hPa West 3.2 km/h 24.1 km/h 97 % 0.3 mm
23:37 10.4 °C 9.9 °C 1021.2 hPa SSW 12.9 km/h 24.1 km/h 97 % 0.3 mm
23:42 10.4 °C 9.9 °C 1021.2 hPa SW 16.1 km/h 25.7 km/h 97 % 0.0 mm
23:47 10.4 °C 9.9 °C 1020.9 hPa SSW 12.9 km/h 25.7 km/h 97 % 0.0 mm
23:52 10.4 °C 9.9 °C 1020.9 hPa SW 17.7 km/h 25.7 km/h 97 % 0.0 mm
23:57 10.4 °C 9.9 °C 1020.9 hPa South 16.1 km/h 25.7 km/h 97 % 0.3 mm
Meteo18
Compliments of Weather Underground - 4 mb

Script developed by  Jim McMurry - jmcmurry@mwt.net Adapted for the template by  Wim van der Kuil - Leuven-Template.eu

You find our weather info also at:

European Weather Network

Weather Underground

Equipment we use:

Weather-station
Davis Vue

Weather-program
Meteohub

Weather-server
Raspberry PI 2 B+

Provider
1 and 1

Davis Vue

Meteohub

Raspberry PI 2 B+

1 and 1